Hourly Weather Roundup
Issued by NWS Central Illinois

Home | Current Version | Previous Version | Text Only | Print | Product List | Glossary On
Versions: 1 2 3 4 5 6 7 8 9 10 11 12 13 14 15 16 17 18 19 20 21 22 23 24 25 26 27 28 29 30 31 32 33 34 35 36 37 38 39 40 41 42 43 44 45 46 47 48 49 50
000
NZUS43 KILX 250910
HWRILX

AREA WEATHER ROUNDUP
NATIONAL WEATHER SERVICE, LINCOLN IL
400 AM CDT MON JUL 25 2016


CITY           SKY/WX    TMP DP  RH WIND       PRES   REMARKS
BLOOMINGTON    NOT AVBL
CHAMPAIGN      LGT RAIN  71  67  87 SW12      29.94F
DANVILLE       LGT RAIN  69  68  98 S6        29.93S
DECATUR        CLOUDY    71  68  90 S6        29.96F
EFFINGHAM      CLOUDY    74  73  96 CALM      30.00R
FLORA          CLOUDY    74  71  91 E3        29.99F
GALESBURG      CLOUDY    70  68  93 CALM      30.01F
JACKSONVILLE   CLOUDY    74  71  92 SE6       30.01R
LACON          PTCLDY    74  71  90 W3        29.99S
LAWRENCEVILLE  CLOUDY    73  70  90 E3        30.00F
LITCHFIELD     NOT AVBL
$$


CITY           SKY/WX    TMP DP  RH WIND       PRES   REMARKS
LINCOLN        CLOUDY    73  72  97 SW3       29.97F
MACOMB         CLOUDY    73  71  95 CALM      30.03S
MATTOON        LGT RAIN  71  68  90 CALM      29.96F
MT CARMEL AP   CLOUDY    73  68  87 E3        30.00F
OLNEY-NOBLE AP MOCLDY    72  72 100 CALM      30.00F
PARIS          CLOUDY    69  69  99 CALM      29.97F
PEORIA         CLOUDY    74  72  93 NW5       29.99F
PONTIAC        CLOUDY    73  70  92 SW5       29.99F
RANTOUL        NOT AVBL
ROBINSON       MOCLDY    69  69  98 SE5       30.01S
SPRINGFIELD    MOCLDY    73  69  87 S10       29.98F
TAYLORVILLE    CLOUDY    71  70  96 CALM      29.99F
$$

...REGIONAL REPORTS...


CITY           SKY/WX    TMP DP  RH WIND       PRES   REMARKS
CHICAGO O`HARE CLOUDY    74  68  81 W9        29.96F
KANKAKEE       CLOUDY    70  67  92 W5        29.98F
MOLINE         CLOUDY    73  66  78 CALM      30.00R
MOUNT STERLING CLOUDY    74  72  91 SE7       30.01R
MOUNT VERNON   CLOUDY    77  68  73 CALM      30.00S
PITTSFIELD     CLOUDY    72  69  92 S13G24    30.02R
QUINCY         CLOUDY    75  72  90 NW7       30.01R
ROCKFORD       CLOUDY    77  67  71 CALM      29.99S
$$


CITY           SKY/WX    TMP DP  RH WIND       PRES   REMARKS
BURLINGTON     CLOUDY    72  68  87 N9        30.00F
CEDAR RAPIDS   CLOUDY    67  67 100 CALM      30.02R
DES MOINES     PTCLDY    71  64  78 N5        30.04R
KIRKSVILLE     CLOUDY    74  66  76 NE9       30.04R
OTTUMWA        CLOUDY    67  62  84 NE3       30.03R
ST LOUIS       TSTM      74  71  91 CALM      30.04F FOG
$$


CITY           SKY/WX    TMP DP  RH WIND       PRES   REMARKS
TERRE HAUTE    CLOUDY    71  67  87 CALM      29.98F
EVANSVILLE     CLOUDY    79  75  87 N7        30.00S HX  83
INDIANAPOLIS   CLOUDY    73  67  81 SW5       29.98F
LAFAYETTE      CLOUDY    70  70 100 VRB3      29.91F
MADISON        CLOUDY    71  65  81 NW5       29.97S
MILWAUKEE      CLOUDY    78  65  63 W5        29.94F HX  80
$$






USA.gov is the U.S. government's official web portal to all federal, state and local government web resources and services.